Skip Page Navigation
NASA JPL Caltech
NASA Logo - Jet Propulsion Laboratory + View the NASA Portal
+ Center for Near-Earth Object Studies
JPL Home Earth Solar System Stars & Galaxies Technology
JPL Solar System Dynamics
BODIES ORBITS EPHEMERIDES TOOLS PHYSICAL DATA DISCOVERY FAQ SITE MAP
JPL Small-Body Database Browser
Search: [ help ]  
59498 (1999 JG8)
Classification: Main-belt Asteroid          SPK-ID: 2059498
Ephemeris | Orbit Diagram | Orbital Elements | Mission Design | Physical Parameters | Discovery Circumstances ]

[ hide orbit diagram ]

For accurate long-term ephemerides, please instead use our Horizons system.This orbit viewer was implemented using two-body methods, and hence should not be used for determining accurate long-term trajectories (over several years or decades) or planetary encounter circumstances.


[ revert to old Java-based viewer ]

Orbital Elements at Epoch 2459000.5 (2020-May-31.0) TDB
Reference: JPL 23 (heliocentric ecliptic J2000)
 Element Value Uncertainty (1-sigma)   Units 
e .09999900412280541 4.5466e-08  
a 2.470243330579934 1.2028e-08 au
q 2.223221457580939 1.1508e-07 au
i 24.38463180322795 5.4398e-06 deg
node 201.1631167543433 9.6877e-06 deg
peri 331.5447140588981 2.5415e-05 deg
M 210.6160273544845 2.4954e-05 deg
tp 2459588.949954899473
(2022-Jan-09.44995490)
9.8964e-05 TDB
period 1418.103830097666
3.88
1.0357e-05
2.836e-08
d
yr
n .2538601140194414 1.8541e-09 deg/d
Q 2.71726520357893 1.3231e-08 au
  Orbit Determination Parameters
   # obs. used (total)      1308  
   data-arc span      7891 days (21.60 yr)  
   first obs. used      1999-03-24  
   last obs. used      2020-10-30  
   planetary ephem.      DE431  
   SB-pert. ephem.      SB431-N16  
   condition code      0  
   norm. resid. RMS      .44665  
   source      ORB  
   producer      Otto Matic  
   solution date      2020-Nov-12 22:46:30  

Additional Information
 Earth MOID = 1.23854 au 
 Jupiter MOID = 2.27272 au 
 T_jup = 3.355 
[ show covariance matrix ]

Ephemeris | Orbit Diagram | Orbital Elements | Mission Design | Physical Parameters | Discovery Circumstances ]

Physical Parameter Table
Parameter Symbol Value Units Sigma Reference Notes
absolute magnitude H 14.2   n/a MPO449383  
diameter diameter 3.637 km 0.257 urn:nasa:pds:neowise_diameters_albedos::2.0[mainbelt] (http://adsabs.harvard.edu/abs/2011ApJ...741...68M)  
geometric albedo albedo 0.212   0.043 urn:nasa:pds:neowise_diameters_albedos::2.0[mainbelt] (http://adsabs.harvard.edu/abs/2011ApJ...741...68M)  

59498 (1999 JG8)          Discovered 1999-May-12 by LINEAR at Socorro
Reference: 20030614/Numbers.arcLast Updated: 2004-04-19
Ephemeris | Orbit Diagram | Orbital Elements | Mission Design | Physical Parameters | Discovery Circumstances ]
ABOUT SSD CREDITS/AWARDS PRIVACY/COPYRIGHT GLOSSARY LINKS
FirstGov 2020-Nov-26 04:02 UT
(server date/time)  
NASA Home Page
Site Manager:   Ryan S. Park
Webmaster  Alan B. Chamberlin